Snowfall_Accumulation
0.9 0.9 1.1 1.0 1.0 1.2 1.7 2.9 5.1 4.5 1.4 0.3 0.4 0.3 0.5 0.4 0.3 0.5 0.3 0.2 0.3 0.4 0.5 0.4 0.3 0.2 0.2 0.1 0.1 0.0 0.0 0.0 0.1 0.1 0.0 0.1 0.1 0.0
1.1 1.2 1.2 1.2 1.2 1.2 1.5 1.8 3.1 5.6 4.2 0.7 0.4 0.3 0.4 0.5 0.4 0.6 0.5 0.2 0.3 0.3 0.3 0.5 0.3 0.2 0.2 0.1 0.1 0.1 0.0 0.0 0.1 0.1 0.1 0.0 0.1 0.1
1.2 1.5 1.6 1.5 1.5 1.4 1.6 1.8 2.3 3.9 5.3 1.4 0.3 0.3 0.5 0.6 0.5 0.5 0.4 0.3 0.4 0.2 0.2 0.3 0.3 0.3 0.3 0.2 0.2 0.1 0.1 0.1 0.1 0.1 0.1 0.1 0.1 0.1
1.6 1.8 1.8 1.8 2.1 1.9 2.1 2.2 2.3 3.0 4.7 3.6 1.0 0.7 0.6 0.5 0.4 0.4 0.3 0.3 0.4 0.2 0.2 0.3 0.4 0.4 0.4 0.5 0.2 0.2 0.2 0.1 0.1 0.1 0.1 0.1 0.1 0.1
1.9 2.3 2.3 2.6 2.9 2.4 2.6 2.7 2.5 2.3 3.1 4.0 2.3 1.0 0.9 0.6 0.6 0.7 0.5 0.6 0.3 0.2 0.2 0.2 0.3 0.5 0.5 0.5 0.5 0.3 0.3 0.3 0.2 0.2 0.3 0.2 0.2 0.1
2.3 2.6 3.2 3.7 4.3 4.5 4.3 3.8 3.0 3.4 3.5 4.3 3.6 2.3 1.8 1.2 1.6 1.8 1.7 1.0 0.9 0.8 0.8 0.4 0.6 0.6 0.6 0.5 0.4 0.5 0.5 0.5 0.5 0.5 0.5 0.4 0.4 0.3
3.4 3.1 2.9 3.4 4.2 5.3 6.2 6.5 6.2 7.1 6.3 6.5 5.7 4.2 3.3 3.2 3.2 2.5 2.9 1.9 1.3 1.1 1.2 0.8 0.6 0.6 0.6 0.3 0.3 0.3 0.8 0.7 0.6 0.7 0.6 0.5 0.5 0.4
4.8 3.8 3.1 2.8 3.0 2.9 3.8 4.6 5.5 8.4 9.5 9.5 8.9 7.8 5.1 3.5 3.5 3.7 4.7 5.2 4.3 1.4 1.6 1.8 1.3 1.5 0.9 0.8 0.4 0.5 0.7 0.8 0.9 0.9 0.7 0.8 0.7 0.7
4.0 3.5 3.3 2.8 2.8 2.9 3.3 2.6 3.0 3.9 6.2 8.7 11.3 8.7 6.2 5.3 5.5 6.2 5.7 6.4 5.0 2.8 2.9 3.9 1.8 2.0 1.4 1.1 0.6 0.6 0.6 1.1 1.2 1.1 1.1 1.0 1.1 0.9
3.1 3.4 3.7 3.5 3.3 3.9 4.6 4.9 4.3 4.0 4.7 6.7 9.0 7.7 6.2 5.9 6.6 8.7 8.2 8.4 5.2 2.9 2.9 6.0 2.5 2.1 1.4 1.2 0.8 0.7 0.9 1.0 1.4 1.3 1.3 1.3 1.4 1.3
3.0 4.0 4.4 4.3 4.1 4.6 6.6 7.1 5.3 4.0 3.2 4.5 5.6 6.4 5.5 5.9 8.2 11.0 14.6 15.4 12.3 4.9 3.4 5.8 3.5 2.6 1.8 1.8 1.2 1.1 1.1 1.0 1.0 1.3 1.3 1.6 1.8 1.7
3.1 3.9 5.9 5.8 5.6 5.3 7.2 8.3 8.1 5.0 4.2 4.1 4.4 4.4 4.6 5.2 6.2 9.6 12.5 16.5 15.0 11.0 5.2 5.1 5.0 6.1 6.2 2.6 1.8 1.4 1.4 1.4 1.2 1.1 1.3 1.6 2.0 2.0
5.3 5.4 5.9 5.7 5.5 5.6 6.4 7.8 8.9 7.7 6.9 6.6 5.6 4.8 5.0 5.5 6.4 8.0 9.6 13.3 16.2 13.7 8.4 8.8 9.4 8.5 10.4 6.6 2.9 2.5 2.1 1.9 1.6 1.3 1.1 1.2 1.7 2.4
6.4 5.1 5.6 5.8 6.0 5.6 5.5 5.0 5.6 6.6 7.4 7.0 6.4 5.4 5.0 5.5 6.4 7.5 9.7 11.0 11.7 11.8 9.1 10.3 14.4 12.4 13.8 11.6 7.0 4.0 3.1 2.3 2.5 2.5 2.3 1.8 1.6 2.0
5.7 6.5 5.9 5.3 5.0 4.2 3.5 4.5 4.4 5.4 6.5 7.1 6.3 5.1 4.8 4.5 5.1 6.4 7.9 9.4 9.7 9.8 8.5 8.1 10.7 10.9 13.8 14.6 9.7 6.4 5.0 4.0 3.4 3.6 3.6 3.1 2.7 2.7
5.0 5.2 5.2 4.2 3.6 3.1 3.0 3.4 4.0 5.0 6.8 7.4 6.3 5.0 4.5 4.8 5.8 6.6 8.3 9.7 12.0 11.2 9.6 7.9 7.8 10.5 13.2 11.1 10.6 8.8 6.7 6.7 5.2 4.6 4.1 4.0 3.4 2.7
8.4 8.1 6.6 5.4 4.9 4.3 3.9 3.6 4.0 4.9 5.7 5.9 6.3 6.5 6.2 6.0 6.3 6.8 8.6 10.5 12.6 12.4 11.9 10.7 10.4 10.9 12.2 12.8 12.8 9.8 7.5 6.7 6.1 6.1 5.6 5.3 4.2 3.7
8.4 9.2 7.1 6.0 5.7 5.3 4.8 4.6 4.4 5.0 5.4 5.9 6.4 6.9 7.5 7.3 7.5 7.3 9.1 11.1 12.4 12.0 12.1 12.1 13.6 15.6 16.1 15.6 13.3 11.0 8.7 7.1 6.3 6.2 6.1 7.0 5.8 4.2
6.9 7.0 6.0 5.9 5.8 5.8 5.7 5.7 5.5 5.2 5.6 6.6 6.9 7.3 7.8 8.5 8.8 8.5 8.8 10.2 11.1 11.3 11.8 12.5 14.9 19.8 23.5 20.1 14.0 11.2 10.4 8.4 7.5 6.9 6.1 6.7 7.2 5.4
5.0 5.9 6.0 5.7 6.4 6.5 6.4 6.2 5.9 5.8 6.2 6.6 6.9 6.9 7.7 9.0 9.4 9.1 9.4 10.5 11.4 12.0 12.5 12.7 15.1 18.4 22.6 19.8 16.8 14.0 9.6 10.1 9.8 9.2 7.1 6.1 5.6 4.6
5.4 5.6 5.7 6.1 6.6 6.4 6.5 6.6 6.9 6.8 6.5 6.7 7.0 6.8 7.3 9.2 9.5 8.6 9.2 10.1 12.2 13.7 13.7 13.5 12.4 13.8 16.8 18.8 20.4 17.9 14.8 10.0 8.4 10.4 10.3 10.3 9.6 8.1
5.9 6.1 5.9 5.9 6.0 6.5 6.7 6.7 6.9 6.5 6.4 6.8 7.0 7.0 7.5 8.7 9.2 9.1 9.8 11.0 11.9 12.4 12.8 12.8 12.0 15.1 19.9 22.5 20.7 17.4 16.7 14.1 12.3 8.4 8.2 9.9 14.2 15.0
7.1 7.0 6.3 5.9 6.1 6.4 6.6 6.7 6.8 6.3 6.2 6.7 7.2 7.5 7.8 8.8 9.0 9.7 10.0 10.5 11.6 11.9 12.4 13.3 14.2 16.6 19.0 19.1 19.6 18.1 16.3 14.0 13.6 13.4 13.5 7.2 6.2 6.6